Location: Alphen
(52.1351°N, 4.6549°E)
Time: 01:42:10
(UTC+00:00)

Cosmos 2369 Rocket - Pass Details

Date: 27 January 2021
Orbit: 830 x 851 km, 71.0° (Epoch: 27 February)

Event Time Altitude Azimuth Distance (km) Brightness Sun altitude
Exits shadow 06:42:11 - 320° (NW) 2,926 4.5 -7.3°
Reaches altitude 10° 06:43:33 10° 315° (NW) 2,451 4.0 -7.1°
Maximum altitude 06:48:29 32° 254° (WSW) 1,386 3.0 -6.4°
Drops below altitude 10° 06:53:22 10° 192° (SSW) 2,432 4.7 -5.7°
Sets 06:56:00 0° 183° (S) 3,361 5.6 -5.4°
